When you browse on this site, cookies collect data to enhance your experience and personalize the content and advertising you see.
Visit our Privacy Policy to learn more. By continuing to use the site, you agree to this use of cookies and data.

Hourly Weather Lipovec

Today, 5 July, Sunday

Time Temperature Precipitation Wind Pressure Humidity
00:00 +19°C° 0 mm 3 mps 737 mmHg 96%
01:00 +18°C° 0 mm 3 mps 737 mmHg 96%
02:00 +18°C° 0 mm 3 mps 737 mmHg 96%
03:00 +18°C° 0 mm 3 mps 737 mmHg 95%
04:00 +18°C° 0 mm 3 mps 737 mmHg 95%
05:00 +18°C° 0 mm 3 mps 737 mmHg 94%
06:00 +19°C° 0 mm 3 mps 737 mmHg 89%
07:00 +21°C° 0 mm 3 mps 738 mmHg 84%
08:00 +22°C° 0 mm 4 mps 738 mmHg 79%
09:00 +23°C° 0 mm 4 mps 738 mmHg 76%
10:00 +25°C° 0 mm 4 mps 738 mmHg 72%
11:00 +27°C° 0 mm 4 mps 738 mmHg 68%
12:00 +27°C° 0 mm 4 mps 738 mmHg 66%
13:00 +27°C° 0 mm 4 mps 738 mmHg 64%
14:00 +28°C° 0 mm 4 mps 738 mmHg 62%
15:00 +27°C° 0 mm 4 mps 738 mmHg 63%
16:00 +27°C° 0 mm 4 mps 738 mmHg 64%
17:00 +27°C° 0 mm 4 mps 737 mmHg 66%
18:00 +25°C° 0 mm 3 mps 737 mmHg 71%
19:00 +24°C° 0 mm 3 mps 737 mmHg 77%
20:00 +21°C° 0 mm 2 mps 737 mmHg 83%
21:00 +20°C° 0 mm 2 mps 737 mmHg 85%
22:00 +20°C° 0 mm 2 mps 738 mmHg 86%
23:00 +19°C° 0 mm 2 mps 738 mmHg 88%

Tomorrow, 6 July, Monday

Time Temperature Precipitation Wind Pressure Humidity
00:00 +18°C° 0 mm 2 mps 738 mmHg 88%
01:00 +18°C° 0 mm 2 mps 738 mmHg 88%
02:00 +17°C° 0 mm 2 mps 737 mmHg 88%
03:00 +17°C° 0 mm 2 mps 737 mmHg 89%
04:00 +17°C° 0 mm 2 mps 737 mmHg 90%
05:00 +17°C° 0 mm 2 mps 737 mmHg 91%
06:00 +19°C° 0 mm 2 mps 737 mmHg 85%
07:00 +21°C° 0 mm 2 mps 737 mmHg 79%
08:00 +23°C° 0 mm 2 mps 737 mmHg 73%
09:00 +25°C° 0 mm 1 mps 737 mmHg 68%
10:00 +26°C° 0 mm 1 mps 737 mmHg 63%
11:00 +28°C° 0 mm 1 mps 737 mmHg 59%
12:00 +28°C° 0 mm 1 mps 736 mmHg 56%
13:00 +29°C° 0 mm 1 mps 736 mmHg 53%
14:00 +29°C° 0 mm 1 mps 736 mmHg 51%
15:00 +29°C° 0 mm 1 mps 735 mmHg 52%
16:00 +29°C° 0 mm 1 mps 735 mmHg 54%
17:00 +29°C° 0 mm 1 mps 734 mmHg 56%
18:00 +27°C° 0 mm 1 mps 734 mmHg 61%
19:00 +25°C° 0 mm 1 mps 734 mmHg 67%
20:00 +24°C° 0 mm 1 mps 734 mmHg 72%
21:00 +23°C° 0 mm 1 mps 734 mmHg 74%
22:00 +22°C° 0 mm 1 mps 734 mmHg 77%
23:00 +21°C° 0 mm 1 mps 733 mmHg 79%

Day after tomorrow, 7 July, Tuesday

Time Temperature Precipitation Wind Pressure Humidity
00:00 +21°C° 0 mm 1 mps 733 mmHg 81%
01:00 +20°C° 0 mm 1 mps 733 mmHg 84%
02:00 +18°C° 0 mm 0 mps 733 mmHg 86%
03:00 +18°C° 0 mm 0 mps 732 mmHg 86%
04:00 +18°C° 0 mm 0 mps 732 mmHg 86%
05:00 +20°C° 0 mm 1 mps 732 mmHg 86%
06:00 +22°C° 0 mm 1 mps 733 mmHg 81%
07:00 +24°C° 0 mm 1 mps 733 mmHg 76%
08:00 +26°C° 0 mm 1 mps 733 mmHg 71%
09:00 +26°C° 0.1 mm 2 mps 733 mmHg 67%
10:00 +27°C° 0.1 mm 2 mps 733 mmHg 63%
11:00 +28°C° 0.1 mm 2 mps 733 mmHg 58%
12:00 +28°C° 0.5 mm 2 mps 733 mmHg 59%
13:00 +28°C° 0.5 mm 2 mps 733 mmHg 61%
14:00 +28°C° 0.5 mm 2 mps 732 mmHg 62%
15:00 +27°C° 1.3 mm 3 mps 732 mmHg 68%
16:00 +26°C° 1.3 mm 3 mps 732 mmHg 73%
17:00 +25°C° 1.3 mm 4 mps 732 mmHg 79%
18:00 +23°C° 1.3 mm 4 mps 733 mmHg 81%
19:00 +22°C° 1.3 mm 5 mps 733 mmHg 84%
20:00 +21°C° 1.3 mm 5 mps 733 mmHg 86%
21:00 +21°C° 1.9 mm 5 mps 734 mmHg 89%
22:00 +20°C° 1.9 mm 5 mps 734 mmHg 93%
23:00 +20°C° 1.9 mm 5 mps 734 mmHg 96%

8 July, Wednesday

Time Temperature Precipitation Wind Pressure Humidity
00:00 +19°C° 0.6 mm 5 mps 734 mmHg 95%
01:00 +17°C° 0.6 mm 6 mps 734 mmHg 95%
02:00 +17°C° 0.6 mm 6 mps 734 mmHg 94%
03:00 +16°C° 0.1 mm 6 mps 734 mmHg 93%
04:00 +16°C° 0.1 mm 6 mps 734 mmHg 93%
05:00 +15°C° 0.1 mm 6 mps 734 mmHg 92%
06:00 +15°C° 0.1 mm 6 mps 735 mmHg 90%
07:00 +15°C° 0.1 mm 6 mps 735 mmHg 89%
08:00 +14°C° 0.1 mm 6 mps 735 mmHg 87%
09:00 +15°C° 0.1 mm 5 mps 735 mmHg 87%
10:00 +16°C° 0.1 mm 5 mps 736 mmHg 86%
11:00 +16°C° 0.1 mm 5 mps 736 mmHg 85%
12:00 +17°C° 0.1 mm 5 mps 736 mmHg 83%
13:00 +19°C° 0.1 mm 5 mps 736 mmHg 81%
14:00 +20°C° 0.1 mm 5 mps 736 mmHg 79%
15:00 +20°C° 0 mm 5 mps 736 mmHg 77%
16:00 +20°C° 0 mm 5 mps 736 mmHg 76%
17:00 +21°C° 0 mm 5 mps 736 mmHg 75%
18:00 +20°C° 0 mm 4 mps 736 mmHg 80%
19:00 +19°C° 0 mm 3 mps 736 mmHg 84%
20:00 +18°C° 0 mm 2 mps 736 mmHg 89%
21:00 +17°C° 0 mm 2 mps 736 mmHg 90%
22:00 +16°C° 0 mm 3 mps 737 mmHg 91%
23:00 +16°C° 0 mm 3 mps 737 mmHg 92%

9 July, Thursday

Time Temperature Precipitation Wind Pressure Humidity
00:00 +16°C° 0 mm 3 mps 737 mmHg 90%
01:00 +14°C° 0 mm 4 mps 737 mmHg 89%
02:00 +14°C° 0 mm 4 mps 737 mmHg 87%
03:00 +14°C° 0 mm 4 mps 737 mmHg 89%
04:00 +13°C° 0 mm 4 mps 737 mmHg 90%
05:00 +13°C° 0 mm 3 mps 737 mmHg 91%
06:00 +15°C° 0 mm 4 mps 738 mmHg 85%
07:00 +17°C° 0 mm 4 mps 738 mmHg 79%
08:00 +19°C° 0 mm 4 mps 738 mmHg 73%
09:00 +20°C° 0 mm 5 mps 738 mmHg 70%
10:00 +20°C° 0 mm 5 mps 738 mmHg 67%
11:00 +21°C° 0 mm 6 mps 738 mmHg 63%
12:00 +22°C° 0 mm 5 mps 738 mmHg 62%
13:00 +23°C° 0 mm 5 mps 738 mmHg 60%
14:00 +23°C° 0 mm 5 mps 738 mmHg 59%
15:00 +23°C° 0.1 mm 5 mps 738 mmHg 61%
16:00 +23°C° 0.1 mm 5 mps 738 mmHg 64%
17:00 +23°C° 0.1 mm 5 mps 738 mmHg 66%
18:00 +21°C° 0 mm 4 mps 738 mmHg 72%
19:00 +19°C° 0 mm 4 mps 738 mmHg 77%
20:00 +18°C° 0 mm 3 mps 738 mmHg 82%
21:00 +17°C° 0 mm 3 mps 738 mmHg 85%
22:00 +16°C° 0 mm 3 mps 739 mmHg 89%
23:00 +16°C° 0 mm 3 mps 739 mmHg 92%

10 July, Friday

Time Temperature Precipitation Wind Pressure Humidity
00:00 +14°C° 0 mm 3 mps 739 mmHg 91%
01:00 +13°C° 0 mm 3 mps 739 mmHg 90%
02:00 +13°C° 0 mm 3 mps 740 mmHg 89%
03:00 +12°C° 0 mm 3 mps 740 mmHg 89%
04:00 +12°C° 0 mm 3 mps 740 mmHg 88%
05:00 +13°C° 0 mm 2 mps 740 mmHg 87%
06:00 +14°C° 0 mm 2 mps 740 mmHg 81%
07:00 +16°C° 0 mm 2 mps 741 mmHg 75%
08:00 +18°C° 0 mm 2 mps 741 mmHg 69%
09:00 +19°C° 0 mm 2 mps 741 mmHg 64%
10:00 +20°C° 0 mm 2 mps 741 mmHg 59%
11:00 +21°C° 0 mm 2 mps 741 mmHg 53%
12:00 +23°C° 0 mm 2 mps 741 mmHg 51%
13:00 +23°C° 0 mm 1 mps 741 mmHg 49%
14:00 +24°C° 0 mm 1 mps 741 mmHg 47%
15:00 +24°C° 0 mm 1 mps 740 mmHg 48%
16:00 +24°C° 0 mm 1 mps 740 mmHg 48%
17:00 +22°C° 0 mm 0 mps 740 mmHg 48%
18:00 +22°C° 0 mm 1 mps 740 mmHg 54%
19:00 +20°C° 0 mm 1 mps 740 mmHg 60%
20:00 +18°C° 0 mm 1 mps 740 mmHg 65%
21:00 +18°C° 0 mm 1 mps 740 mmHg 67%
22:00 +16°C° 0 mm 1 mps 740 mmHg 69%
23:00 +15°C° 0 mm 2 mps 741 mmHg 70%
Show more